Location: Unspecified
(43.4354°N, 0.0000°E)
Time: 12:47:54
(UTC+00:00)

S-56A Canister/Altair - Pass Details

Date: 30 June 2019
Orbit: 632 x 2500 km, 38.9° (Epoch: 21 July)

Event Time Altitude Azimuth Distance (km) Brightness Sun altitude
Rises 15:15:51 0° 260° (W) 5,746 12.7 45.8°
Reaches altitude 10° 15:20:01 10° 259° (WSW) 4,511 12.5 45.0°
Maximum altitude 15:31:37 68° 180° (S) 1,612 9.9 43.0°
Drops below altitude 10° 15:39:10 10° 99° (E) 3,022 10.2 41.6°
Sets 15:41:27 0° 97° (E) 3,782 10.6 41.2°
